Overview Statistics Trail Chart Weather Telemetry Raw packets
 

This is the latest recevied weather packets stored in our database for station/object K1TTC. If no packets are shown the sender has not sent any weather packets the latest 10 day(s).

<< 1 2 3 4 >>
Time Temp. Humidity Pressure Rain* Wind** Luminosity Snow
1788630433 22.22° C 61% 1012.3 hPa 0 mm - 1011 W/m² -
1788629833 22.22° C 60% 1012.3 hPa 0 mm - 357 W/m² -
1788629235 22.22° C 60% 1012.1 hPa 0 mm - 246 W/m² -
1788628630 22.22° C 58% 1012.1 hPa 0 mm - 230 W/m² -
1788628030 22.22° C 56% 1011.9 hPa 0 mm - 135 W/m² -
1788627429 22.78° C 56% 1011.8 hPa 0 mm - 130 W/m² -
1788626840 22.78° C 57% 1011.7 hPa 0 mm - 223 W/m² -
1788626240 22.22° C 58% 1011.8 hPa 0 mm - 452 W/m² -
1788625765 22.78° C 58% 1011.8 hPa 0 mm - 265 W/m² -
1788625036 22.78° C 58% 1011.8 hPa 0 mm - 193 W/m² -
1788624438 22.22° C 58% 1011.9 hPa 0 mm - 383 W/m² -
1788623836 22.78° C 57% 1012 hPa 0 mm - 234 W/m² -
1788623239 22.78° C 57% 1012 hPa 0 mm - 288 W/m² -
1788622631 22.78° C 57% 1012 hPa 0 mm - 267 W/m² -
1788622032 22.78° C 57% 1012 hPa 0 mm - 473 W/m² -
1788621431 22.78° C 57% 1012 hPa 0 mm - 285 W/m² -
1788620832 22.78° C 58% 1011.9 hPa 0 mm - 364 W/m² -
1788620359 22.78° C 59% 1011.8 hPa 0 mm - 951 W/m² -
1788619634 22.22° C 60% 1012 hPa 0 mm - 828 W/m² -
1788619035 - - 1011.9 hPa - - - -
1788617657 20.56° C 65% 1012 hPa 0 mm - 345 W/m² -
1788617057 20.56° C 66% 1012.1 hPa 0 mm - 258 W/m² -
1788616453 20.56° C 66% 1012 hPa 0 mm - 264 W/m² -
1788615853 20.56° C 68% 1011.9 hPa 0 mm - 213 W/m² -
1788615250 20° C 69% 1011.9 hPa 0 mm - 160 W/m² -

* Rain latest hour (hover to see other rain measurements)
** Current wind speed in m/s (hover to see current wind gust speed)